Zurück zum Katalog

COSMOS 2251 DEB

AktivLEO
NORAD 34001·DEBRIS·🇷🇺 Russia

Gestartet Jun 16, 1993 von Plesetsk Cosmodrome

Loading…

Nächste Überflüge (nächste 24 Stunden)

TLE

AktuellSource: Space-Track

Epoche: Sep 14, 2026, 08:54 UTC

1 34001U 93036GL  26257.37133194  .00000238  00000-0  88311-4 0  9990
2 34001  74.0381 134.6469 0019923 155.0176 321.8879 14.37344709921063

Verfolge COSMOS 2251 DEB in Echtzeit mit AllMySat

Download on the App Store